This is the latest recevied weather packets stored in our database for station/object K7AEL. If no packets are shown the sender has not sent any weather packets the latest 10 day(s).
| Time | Temp. | Humidity | Pressure | Rain* | Wind** | Luminosity | Snow |
|---|---|---|---|---|---|---|---|
| 1777954672 | 14.44° C | 82% | 1015.9 hPa | 1.78 mm | - | 0 W/m² | - |
| 1777954369 | 14.44° C | 82% | 1015.9 hPa | 1.78 mm | - | 0 W/m² | - |
| 1777954067 | 15° C | 80% | 1015.9 hPa | 1.27 mm | - | 0 W/m² | - |
| 1777953764 | 15° C | 77% | 1016 hPa | 3.05 mm | - | 0 W/m² | - |
| 1777953461 | 15.56° C | 74% | 1015.9 hPa | 1.78 mm | - | 0 W/m² | - |
| 1777953157 | 15.56° C | 69% | 1015.8 hPa | 0 mm | - | 0 W/m² | - |
| 1777952854 | 16.11° C | 67% | 1015.8 hPa | 0 mm | - | 0 W/m² | - |
| 1777952551 | 16.67° C | 66% | 1015.6 hPa | 0 mm | - | 0 W/m² | - |
| 1777952247 | 16.67° C | 64% | 1015.5 hPa | 0 mm | - | 0 W/m² | - |
| 1777951945 | 17.22° C | 59% | 1015.5 hPa | 0 mm | - | 0 W/m² | - |
| 1777951643 | 16.67° C | 59% | 1015.1 hPa | 0 mm | - | 0 W/m² | - |
| 1777951338 | 16.67° C | 59% | 1014.9 hPa | 0 mm | - | 0 W/m² | - |
| 1777951036 | 17.22° C | 58% | 1015 hPa | 0 mm | - | 0 W/m² | - |
| 1777950732 | 17.22° C | 58% | 1014.4 hPa | 0 mm | - | 0 W/m² | - |
| 1777950429 | 17.78° C | 59% | 1014.1 hPa | 0 mm | - | 0 W/m² | - |
| 1777950125 | 17.22° C | 57% | 1013.9 hPa | 0 mm | - | 0 W/m² | - |
| 1777949821 | 17.22° C | 56% | 1014.3 hPa | 0 mm | - | 0 W/m² | - |
| 1777949520 | 17.22° C | 57% | 1014.8 hPa | 0 mm | - | 0 W/m² | - |
| 1777949218 | 17.22° C | 59% | 1015 hPa | 0 mm | - | 0 W/m² | - |
| 1777948914 | 17.22° C | 59% | 1014.7 hPa | 0 mm | - | 0 W/m² | - |
| 1777948612 | 17.22° C | 57% | 1014.4 hPa | 0 mm | - | 0 W/m² | - |
| 1777948309 | 16.67° C | 62% | 1014.5 hPa | 0 mm | - | 0 W/m² | - |
| 1777948006 | 16.67° C | 64% | 1014.4 hPa | 0 mm | - | 0 W/m² | - |
| 1777947703 | 16.67° C | 68% | 1014.2 hPa | 1.78 mm | - | 0 W/m² | - |
| 1777947400 | 16.67° C | 69% | 1014.7 hPa | 1.78 mm | - | 0 W/m² | - |
* Rain latest hour (hover to see other rain measurements)
** Current wind speed in m/s (hover to see current wind gust speed)